Wind_Speed
46 45 44 42 40 38 37 36 34 33 31 29 28 27 27 27 27 27 26 26 25 24 24 23 22 22 21 21 20 20 19 19 19 19 19 19 19 19 19 19 20 19 19 20 19 19 19 19 19 19 18 17 16 15 14 13 12 11 11 10 9 9 9 8 8 8 8 8 9 9 9 9 9 9 9 10 10 9 8 9 9 9 8 8 7 7 8 9
47 46 45 44 42 40 38 37 35 34 32 30 29 28 28 28 28 27 27 26 25 25 24 23 23 22 22 21 21 20 20 20 20 20 20 20 20 20 20 20 20 20 20 20 20 19 19 19 19 19 18 17 16 16 15 14 13 12 12 11 10 10 9 9 10 10 10 10 10 10 9 9 9 9 9 10 11 10 10 10 9 9 8 8 8 8 9 10
47 47 46 45 44 42 40 39 37 35 33 32 31 30 29 29 29 28 28 27 26 25 24 24 23 23 22 22 21 21 21 21 21 21 21 21 21 21 21 21 21 21 21 20 20 20 19 19 19 19 18 17 16 16 15 14 14 13 13 12 12 11 11 10 11 11 11 11 11 11 10 10 10 10 10 10 11 12 12 11 11 10 9 9 9 9 9 10
48 48 47 46 45 44 42 40 38 36 35 33 32 31 31 30 30 29 29 28 27 26 25 24 24 23 23 23 23 22 22 23 23 22 22 22 22 22 22 22 22 21 21 21 20 20 20 20 19 19 18 17 17 16 15 15 14 14 14 13 13 12 11 11 12 12 13 12 12 12 11 10 10 10 11 11 12 12 12 12 12 12 11 11 10 10 10 10
50 49 48 47 46 45 44 42 40 38 36 35 34 33 32 32 31 31 30 29 28 27 26 25 25 24 24 24 24 24 24 24 24 23 24 23 23 23 23 23 22 22 21 21 21 20 20 20 19 19 18 17 17 16 16 15 15 14 14 14 13 13 12 12 13 13 13 13 13 12 11 10 11 11 11 12 12 12 12 12 12 12 13 12 12 12 11 11
51 50 49 49 48 47 45 43 41 40 38 36 35 35 34 33 33 32 31 31 30 28 27 27 26 26 25 25 25 25 26 26 25 24 24 24 24 24 23 23 23 22 22 22 21 21 20 20 19 18 18 17 17 16 16 16 15 15 14 14 14 14 13 13 14 14 14 14 13 12 11 11 11 12 12 12 12 13 12 13 12 12 13 13 13 13 13 13
53 52 51 50 49 48 47 45 43 41 40 38 37 36 35 35 34 33 33 32 31 30 29 28 27 27 27 27 27 27 27 26 26 25 25 25 24 24 24 24 23 23 23 22 22 21 20 20 19 19 18 18 17 17 16 16 16 15 15 15 14 15 15 15 15 14 15 14 13 13 12 11 12 12 13 12 12 13 13 13 14 13 13 14 14 15 15 15
53 53 52 51 50 50 48 47 45 43 42 40 39 38 37 36 35 35 34 34 33 31 30 29 29 29 28 28 28 28 28 27 27 26 26 25 25 25 25 24 24 24 24 23 22 21 20 20 20 19 19 18 17 17 17 16 16 16 15 15 15 16 16 16 16 15 15 14 13 13 12 12 12 14 14 12 12 13 13 14 15 15 15 15 15 16 16 16
54 53 53 52 52 51 50 48 47 45 44 42 41 40 39 38 37 36 36 35 34 33 31 30 30 30 30 30 29 29 29 28 28 28 27 26 26 26 26 26 25 25 24 24 23 22 21 21 20 20 19 18 18 17 17 16 16 16 16 16 16 17 17 17 16 14 14 14 14 14 13 12 13 15 15 12 12 13 14 15 16 17 16 15 15 16 16 16
53 54 54 53 53 52 51 50 48 47 45 44 43 42 41 40 39 38 38 37 36 34 33 32 32 31 31 31 30 31 30 29 29 29 28 27 27 27 27 27 26 26 25 24 23 22 22 21 21 20 19 19 18 17 17 17 16 17 16 16 17 17 17 17 16 14 14 14 15 15 13 13 13 16 16 13 13 14 14 15 16 17 17 16 15 16 16 17
51 52 53 54 54 53 52 51 50 49 47 46 45 44 43 42 41 40 40 39 38 36 35 34 33 33 33 32 32 32 31 31 31 29 29 28 28 28 28 27 27 26 25 24 24 23 22 22 21 20 19 19 18 17 17 16 16 16 16 16 16 17 17 17 15 14 14 15 15 15 14 13 14 16 17 14 13 14 14 15 16 17 17 17 17 16 16 17
49 50 52 53 54 54 53 53 51 50 49 48 47 46 45 44 43 42 41 41 40 39 37 36 35 34 34 34 34 34 33 33 32 30 30 29 29 28 28 28 27 26 25 25 24 23 22 22 21 21 20 19 18 17 16 16 16 16 16 16 16 16 16 16 16 14 14 15 16 16 14 14 16 17 17 16 14 15 15 16 16 17 18 18 18 17 17 16
46 48 50 51 52 53 53 53 53 52 50 49 48 47 46 45 44 44 43 43 42 41 39 38 36 36 36 35 35 35 35 34 33 32 31 30 29 29 28 28 28 27 26 26 25 24 23 23 22 21 20 19 18 17 16 16 16 15 15 15 15 15 15 15 15 14 14 15 16 17 14 14 18 17 17 17 16 15 16 16 17 18 19 19 20 19 19 18
44 46 48 50 50 51 52 53 53 53 52 51 50 49 48 47 46 45 45 44 44 43 42 40 38 38 38 37 37 37 36 36 34 33 32 31 31 29 29 29 28 28 27 27 26 25 24 24 23 22 21 20 18 17 17 16 16 16 15 15 15 14 14 15 15 14 15 15 16 17 14 13 19 19 17 18 17 17 17 17 19 19 20 20 21 21 21 20
43 44 46 48 49 50 51 51 52 52 52 51 50 50 49 48 47 46 46 46 45 45 44 42 41 40 40 39 39 39 38 37 36 35 33 32 32 31 31 30 30 29 29 28 27 26 26 25 24 23 22 21 20 19 18 18 17 17 17 16 15 15 15 15 16 16 17 17 17 18 15 13 18 19 19 19 18 18 18 19 20 21 22 22 22 22 23 23
43 43 44 46 48 49 50 51 51 51 51 51 51 50 49 49 48 47 47 47 47 47 46 45 43 42 41 41 41 41 40 39 38 36 35 34 33 33 32 32 32 31 31 30 29 28 27 26 25 24 23 22 21 20 20 20 20 20 19 17 17 17 17 18 18 19 19 19 18 19 16 14 17 20 20 20 20 20 20 20 21 22 23 23 23 23 24 24
43 43 44 45 46 47 49 50 51 51 51 51 50 50 50 49 49 48 48 48 48 48 48 47 45 44 43 43 43 43 42 41 40 38 37 36 35 35 34 34 34 33 33 32 31 30 29 28 27 25 25 23 23 23 23 22 22 22 21 19 20 20 20 20 21 22 22 22 21 21 18 16 18 21 21 21 21 20 21 21 22 23 24 25 25 25 25 26
45 45 44 45 45 46 47 49 50 51 51 51 51 50 50 49 49 49 49 49 49 49 50 49 47 46 45 44 44 44 43 42 41 40 39 38 37 37 36 36 36 35 35 34 33 32 30 29 28 27 26 25 25 26 26 25 24 23 22 22 23 23 22 22 23 25 25 25 24 24 21 18 20 22 23 23 22 21 21 22 24 25 25 26 27 27 27 27
48 47 46 45 45 46 46 47 49 50 51 52 52 51 50 50 49 49 49 49 50 50 51 50 49 48 47 45 45 45 45 44 43 42 41 40 39 39 38 38 38 37 36 35 34 33 32 31 30 28 27 27 29 29 27 26 25 25 25 25 24 24 24 24 26 27 28 28 26 26 25 22 21 22 24 26 24 23 23 24 25 26 27 28 28 28 28 28
51 49 48 47 46 46 46 46 47 48 49 51 51 52 51 51 50 50 49 49 50 51 51 51 50 50 49 47 47 47 47 46 46 45 43 42 41 41 41 40 40 39 38 37 36 35 34 33 31 29 29 31 31 29 28 27 27 27 27 26 26 25 25 26 28 29 30 30 28 28 28 25 22 22 24 27 26 24 25 26 26 27 28 29 29 28 29 30
54 53 50 49 48 47 46 46 47 47 48 49 50 51 52 52 51 51 50 50 50 51 51 51 51 50 50 49 48 48 48 48 47 46 45 44 43 43 42 42 41 40 39 38 38 37 36 34 32 31 32 33 32 30 29 29 29 29 29 28 28 28 27 28 30 30 32 33 31 30 31 29 26 25 24 26 27 26 27 27 27 27 29 30 29 29 29 30
53 55 54 52 50 49 48 47 47 47 47 47 48 49 51 52 53 53 52 52 52 52 52 52 52 51 50 50 49 49 49 49 48 48 47 46 45 44 44 43 43 42 42 41 40 39 37 35 33 33 34 33 32 31 30 31 30 30 30 30 30 30 30 30 31 32 33 35 34 33 34 32 29 28 26 26 27 27 28 28 27 28 30 30 30 31 31 31
51 54 56 55 52 51 50 48 47 47 47 47 47 48 50 51 52 54 54 54 54 53 53 53 52 52 51 51 50 49 50 50 50 50 49 48 47 47 46 45 45 44 44 43 42 40 38 36 35 35 35 35 34 33 32 32 32 32 32 32 32 31 32 32 32 33 34 36 36 36 37 36 32 31 28 27 29 28 29 29 29 30 30 30 31 32 32 32
50 51 54 56 56 53 51 50 49 48 48 48 47 48 49 50 51 53 55 57 57 56 55 55 54 54 53 52 52 51 51 51 52 51 51 51 50 49 48 47 47 46 45 44 43 42 40 39 38 36 36 36 35 34 34 34 34 34 34 34 33 33 33 33 33 34 34 36 38 39 42 40 35 33 29 28 31 30 30 31 31 31 32 32 33 32 32 33
52 50 50 52 56 56 54 52 50 50 50 48 49 49 49 50 50 51 53 57 59 57 57 57 56 55 54 54 53 52 52 52 52 53 52 52 52 51 50 49 48 47 46 46 45 44 42 41 39 38 38 37 36 36 36 37 36 36 35 35 35 34 34 35 35 35 35 37 38 40 46 45 38 34 31 30 33 31 30 31 31 32 33 34 34 33 34 34
52 53 51 49 51 54 57 55 52 52 51 50 51 51 50 50 50 51 52 56 59 57 56 57 57 56 55 55 54 53 54 53 52 53 53 53 53 53 51 50 49 48 48 48 47 46 43 42 41 40 39 38 39 38 38 38 38 37 36 36 36 36 36 36 36 37 37 38 39 41 47 49 43 36 33 34 34 32 31 32 32 33 34 35 34 34 34 34
51 53 54 53 51 50 52 56 56 54 52 53 53 52 51 51 51 51 51 56 59 55 53 55 56 55 54 54 54 55 56 53 52 54 54 54 55 54 53 52 50 50 50 50 49 47 44 43 42 41 41 41 41 40 39 39 39 39 37 37 37 37 37 38 37 37 38 40 42 44 47 51 49 39 35 36 34 33 33 33 34 34 34 34 34 34 34 33
53 51 52 53 53 51 49 52 56 57 56 55 54 53 53 52 52 53 53 57 59 54 51 51 53 55 54 54 54 56 57 54 53 53 54 55 56 55 55 54 52 52 51 52 51 48 47 46 45 44 44 43 42 41 41 40 40 39 38 38 38 38 38 38 38 38 38 41 45 46 46 50 52 44 38 37 34 35 35 35 36 35 34 33 33 33 33 31
57 55 52 50 51 53 51 50 51 54 57 58 57 56 54 54 55 54 56 59 57 54 52 50 50 53 54 54 54 55 56 57 56 54 54 56 57 57 57 55 54 54 53 53 52 51 50 49 47 46 46 44 43 42 42 41 41 40 40 41 40 39 39 38 38 38 40 44 46 46 47 50 53 49 42 38 36 37 38 37 37 36 34 32 32 32 31 29
59 58 56 53 51 52 53 52 49 49 52 56 59 59 57 58 57 58 61 60 54 53 53 51 50 51 52 53 53 54 55 57 57 55 55 56 57 57 57 57 56 56 56 55 54 53 52 51 49 48 46 44 44 43 43 42 42 42 42 42 41 40 39 38 38 39 43 48 47 47 49 51 55 53 44 40 39 40 40 39 37 35 33 32 31 30 29 29
59 59 58 56 54 52 52 52 51 49 48 50 54 58 61 62 61 64 64 56 51 55 56 54 52 50 50 51 51 52 53 55 55 55 54 55 56 57 57 57 57 57 57 56 55 54 53 52 50 48 46 45 45 45 45 45 44 44 43 42 41 40 39 38 40 42 47 49 48 50 52 53 58 55 47 43 42 41 42 41 38 34 32 31 30 29 30 30
58 59 59 59 57 55 52 51 51 51 50 49 48 51 58 64 67 69 64 55 55 59 58 56 54 51 50 51 51 51 51 53 54 54 53 53 54 55 55 55 54 54 56 55 54 54 54 53 51 50 48 47 47 47 47 46 45 43 42 40 40 40 41 42 44 46 49 49 49 53 55 57 60 55 48 45 43 43 42 42 42 37 32 31 30 30 31 32
57 58 59 59 59 58 55 53 52 52 51 51 51 51 56 63 66 61 56 57 61 62 60 57 55 54 54 54 53 52 52 53 53 53 54 53 54 54 54 55 55 55 56 55 54 55 54 54 53 52 51 49 48 47 46 45 43 42 40 39 40 40 43 45 47 49 50 49 50 55 58 60 59 53 48 45 43 44 42 41 43 40 33 30 30 30 31 33
58 58 58 59 59 59 59 57 54 52 51 53 55 56 59 62 59 52 49 52 56 58 60 60 59 58 57 55 55 54 53 54 54 54 54 54 55 55 55 55 56 56 55 55 55 55 55 55 53 52 51 49 47 46 45 44 43 43 42 42 43 42 44 47 48 50 51 51 53 57 60 60 58 53 50 46 44 44 43 42 43 42 36 32 30 30 31 33
59 58 58 58 58 59 60 61 58 54 54 56 57 60 62 60 55 53 51 50 50 51 54 58 60 62 61 59 57 56 55 54 53 54 55 55 55 55 54 54 54 54 53 54 55 54 55 55 53 51 50 49 47 46 46 45 45 45 44 45 45 43 44 46 48 50 53 56 58 59 60 59 57 55 52 49 46 45 45 44 43 41 38 34 32 32 33 33
62 61 59 58 57 58 59 61 62 60 59 60 62 63 62 57 54 53 51 50 51 50 50 52 54 56 59 62 62 60 58 57 55 55 55 55 55 54 53 53 53 54 53 53 54 54 55 54 52 51 51 50 49 48 48 47 47 47 47 47 46 44 45 47 50 53 56 60 60 59 60 59 58 56 53 50 49 47 46 45 43 41 38 36 36 35 35 35
65 63 61 59 58 58 59 59 61 62 62 63 66 66 60 57 56 54 51 50 51 50 51 53 52 51 52 55 60 63 63 61 60 59 58 57 56 54 53 52 53 53 53 52 53 53 54 54 53 53 53 52 51 50 50 49 48 49 49 48 46 47 49 50 53 55 57 61 62 61 62 61 60 58 53 52 51 49 48 45 42 40 37 37 38 36 35 36
68 66 64 61 60 60 61 60 60 62 62 64 67 67 63 59 56 55 55 54 52 50 49 51 52 52 51 49 51 56 61 64 64 64 62 62 61 57 54 54 53 53 52 52 54 54 55 55 55 55 55 54 53 53 52 52 52 52 52 50 49 51 53 53 55 57 58 62 64 63 63 63 61 58 54 53 52 50 48 45 42 39 36 37 38 37 37 38
71 70 67 64 64 64 64 64 64 64 66 68 68 66 64 62 57 56 57 57 55 53 49 47 47 49 51 50 47 47 51 56 61 64 65 66 65 61 58 58 56 55 54 55 57 57 56 57 57 57 57 57 56 56 56 56 55 55 53 53 53 54 56 57 58 59 60 63 65 65 64 61 59 57 55 54 53 52 49 46 43 38 35 36 37 38 39 40
72 73 71 68 68 69 68 68 68 69 68 68 67 64 61 60 60 60 59 58 59 58 54 50 48 48 49 49 47 46 46 48 51 55 59 64 67 65 63 62 61 59 59 60 61 60 60 60 61 61 61 61 60 59 59 58 57 56 55 56 57 58 59 61 61 62 63 64 66 67 66 60 57 58 57 53 53 52 49 47 44 37 33 34 35 36 38 40
71 73 72 72 72 72 72 73 73 74 71 67 65 63 60 61 61 61 60 62 63 61 58 56 54 52 51 50 48 46 46 48 48 49 51 55 61 64 65 65 64 64 64 64 65 64 64 64 64 65 65 65 63 61 60 60 59 59 59 60 61 62 62 63 65 67 67 66 66 68 67 59 54 57 56 52 52 52 48 45 43 39 34 32 32 35 38 39
68 71 71 73 75 75 76 77 77 76 76 73 67 63 64 64 62 61 61 63 64 63 61 60 58 56 55 54 51 49 49 49 50 50 49 49 51 55 58 60 61 62 64 65 65 65 64 65 66 68 69 68 66 66 65 65 64 64 65 66 66 68 69 69 69 69 68 67 66 68 68 57 49 53 53 50 51 53 49 45 45 45 42 37 34 36 39 40
64 66 69 72 73 74 77 80 80 79 79 76 71 69 69 67 65 64 64 64 63 63 62 61 60 59 58 57 56 56 55 53 51 50 48 48 47 46 48 50 52 54 57 60 62 62 62 65 68 71 72 72 71 71 71 70 71 72 73 72 72 73 72 70 69 68 68 69 67 70 69 55 47 50 51 51 53 53 51 49 49 50 48 43 37 36 39 40
62 62 66 70 71 72 74 78 81 82 80 77 75 76 75 71 69 68 67 65 63 61 61 61 60 60 60 59 59 59 57 56 55 52 50 50 49 46 46 47 48 49 51 53 54 53 53 56 60 64 68 72 75 76 76 77 77 77 77 75 75 74 72 71 70 69 71 71 68 70 68 54 47 49 50 52 54 53 53 52 51 53 53 47 40 37 38 40
63 63 64 67 69 70 72 74 76 78 79 79 79 79 78 77 75 71 68 66 65 64 64 63 62 61 61 61 61 61 60 58 57 56 55 53 49 48 48 48 49 49 49 49 49 48 49 49 50 54 61 69 76 79 79 78 76 75 74 73 71 70 69 68 66 66 68 68 66 67 63 52 48 50 50 52 53 53 55 54 51 54 56 52 47 43 42 42
67 66 65 65 68 70 71 72 72 74 76 78 81 81 80 79 78 75 72 71 69 68 67 65 65 64 64 63 63 63 63 61 61 60 57 54 50 49 50 50 51 50 49 49 50 50 51 51 50 52 56 64 69 72 72 72 71 70 70 69 68 67 66 64 63 64 65 65 65 64 60 53 51 52 52 52 53 53 55 55 54 55 55 54 52 50 47 45
69 68 67 67 69 70 71 71 72 73 74 74 78 81 82 81 80 78 78 77 74 71 69 69 69 69 68 66 65 65 65 64 65 62 58 55 53 52 53 52 51 50 50 51 51 51 53 54 53 53 55 57 58 60 62 64 65 66 67 68 68 67 66 65 67 66 65 67 66 59 57 57 53 51 52 52 53 53 54 57 57 55 54 53 53 52 50 48
71 69 68 70 71 71 71 70 70 72 74 73 73 75 78 80 81 81 81 80 77 75 73 72 72 71 69 67 66 66 66 67 67 65 60 57 55 55 55 53 52 50 51 53 54 53 56 57 55 55 56 56 54 56 58 58 59 60 62 64 65 65 66 66 68 67 66 69 67 58 58 59 53 50 52 51 51 53 54 56 56 54 54 54 53 53 53 53
72 71 70 72 74 73 72 70 70 72 74 73 72 71 72 75 78 79 80 80 80 79 77 76 74 72 69 68 68 68 68 69 69 66 61 59 58 58 57 55 53 50 51 54 55 55 56 55 53 54 56 57 55 56 57 57 58 59 60 61 62 63 64 64 65 65 64 67 66 60 62 61 54 53 53 51 51 53 53 53 54 54 55 54 54 54 55 55
72 72 72 74 76 75 73 73 73 73 73 74 74 73 70 70 72 73 76 79 81 80 79 79 77 73 71 71 72 72 70 69 70 67 63 62 62 61 59 57 54 52 51 50 51 51 52 51 49 50 54 56 53 52 55 56 58 60 60 61 60 61 62 63 64 64 64 66 64 61 63 60 53 51 50 48 50 52 51 52 53 54 54 54 55 56 56 57
72 73 74 76 77 76 75 75 75 75 75 75 76 76 74 71 69 68 71 75 78 79 79 78 76 73 72 72 73 73 70 67 67 65 64 66 66 64 61 56 52 52 53 52 51 50 50 50 48 47 52 55 49 48 52 53 55 59 60 58 58 59 61 62 62 62 63 63 60 59 60 56 49 47 46 46 51 54 53 52 52 53 54 55 57 58 58 58
71 73 74 77 78 78 77 77 77 78 77 76 75 75 77 76 72 68 67 68 69 73 77 77 75 74 74 74 73 69 65 64 65 65 64 65 65 65 63 58 54 54 54 54 56 55 53 52 48 45 50 52 48 49 53 53 56 60 56 51 52 55 58 60 60 59 59 59 58 58 57 51 47 48 50 51 54 55 52 51 52 53 54 55 56 57 57 57
Wind_Direction
212 212 213 213 213 213 213 213 213 214 215 216 217 217 217 216 215 214 214 214 215 215 215 214 214 214 214 213 213 212 212 212 212 213 213 213 211 209 208 207 205 205 205 206 207 208 209 210 211 211 211 210 210 209 208 208 210 213 217 224 236 248 262 276 288 298 304 310 314 314 309 305 304 305 304 302 303 305 306 308 309 312 313 306 294 279 274 279
214 214 214 215 215 216 216 215 215 215 217 218 219 219 219 219 218 217 217 217 217 218 217 216 215 214 214 214 213 212 211 210 209 209 209 209 208 206 206 205 204 204 205 206 207 207 208 209 209 209 209 208 209 209 209 210 212 216 221 228 238 249 262 274 285 295 302 307 310 310 306 304 305 305 302 301 303 306 308 308 306 307 307 302 296 287 278 276
215 215 215 216 216 217 217 216 216 217 218 219 220 221 221 220 220 220 220 220 220 220 219 218 216 215 214 213 212 211 209 208 207 206 206 207 206 205 205 205 204 205 206 207 208 207 208 208 208 208 208 208 209 211 212 213 216 219 224 230 239 249 260 272 283 292 297 302 305 305 302 303 307 308 306 303 304 308 309 308 306 305 303 300 295 289 280 275
217 216 216 216 217 217 217 217 217 218 219 220 221 221 222 222 222 222 222 222 222 222 221 219 217 215 213 212 211 209 207 206 206 205 205 205 205 204 205 205 205 207 208 210 210 209 209 209 208 208 208 209 210 212 215 217 221 224 228 233 240 249 258 269 279 286 291 297 300 299 297 301 307 310 307 305 307 310 308 305 305 303 300 297 293 288 281 275
218 218 218 218 217 217 217 217 218 219 220 221 221 222 222 223 223 223 223 223 223 224 222 220 217 215 213 211 209 207 206 206 206 205 206 206 206 206 206 207 207 209 210 211 212 210 210 210 209 209 209 210 213 215 217 222 225 229 234 238 244 252 259 268 276 281 287 293 295 294 293 299 306 307 305 306 310 311 308 307 307 304 299 293 289 285 281 275
219 220 220 220 219 218 218 218 219 220 221 221 222 223 223 224 224 224 224 224 224 224 224 221 217 215 212 210 208 206 207 207 206 206 207 207 207 208 208 209 209 210 211 212 212 211 210 210 210 210 212 213 215 218 221 226 230 234 239 244 249 256 262 268 274 279 285 288 289 289 290 297 303 304 303 307 311 312 311 312 311 308 301 293 284 279 277 275
221 221 221 221 221 220 219 219 220 221 221 222 223 223 224 225 225 226 225 225 225 225 225 223 219 215 213 211 208 207 207 208 208 208 209 209 209 209 210 210 211 211 212 213 213 212 211 212 211 212 214 216 218 221 224 229 234 237 243 249 255 262 267 270 273 277 281 283 284 285 287 294 300 301 300 307 313 313 316 318 316 315 309 300 290 280 275 272
223 223 223 223 223 222 222 221 221 222 222 223 223 224 225 226 226 227 226 226 226 226 226 224 221 217 214 212 210 209 209 209 210 211 211 211 211 211 211 212 212 212 213 214 213 213 212 213 213 214 215 218 220 223 227 232 237 242 247 254 260 266 269 271 273 275 277 279 280 281 284 291 297 296 297 308 314 314 319 322 322 321 317 310 301 291 281 275
223 224 224 225 225 225 224 224 224 223 223 223 224 224 225 226 227 228 227 227 227 228 228 226 223 219 215 213 212 211 211 211 213 214 215 216 215 215 215 215 214 214 215 215 214 213 213 214 215 216 217 219 222 225 231 236 241 247 252 257 262 266 268 270 271 272 273 275 275 276 280 286 292 293 296 310 314 313 320 323 323 322 319 315 308 300 293 285
223 223 224 225 226 227 227 227 227 226 226 225 225 225 225 227 228 228 228 228 227 228 229 228 226 221 217 215 214 214 214 215 216 217 218 219 220 219 219 218 217 216 216 215 214 213 213 215 216 217 218 221 224 228 234 240 246 251 255 259 261 263 265 267 269 269 269 269 271 273 276 282 288 290 295 309 311 312 319 320 322 322 320 317 311 304 298 293
222 223 224 225 226 227 228 229 229 229 228 228 227 226 227 227 228 228 228 228 228 228 228 229 227 223 219 217 217 217 217 218 219 220 221 222 223 223 222 221 219 218 216 215 214 213 213 215 217 219 220 223 227 231 238 244 248 252 255 258 260 261 264 267 268 267 266 266 268 271 274 280 283 285 294 304 307 310 316 317 319 320 319 317 313 305 297 292
223 223 223 224 225 226 228 229 230 230 230 230 230 229 229 229 229 229 229 228 228 227 228 229 228 225 221 219 219 219 219 221 222 223 223 223 224 224 223 221 219 217 215 214 213 213 213 215 218 221 224 227 230 234 238 243 247 251 255 258 260 262 265 268 270 269 267 267 269 270 273 280 280 283 293 299 303 308 313 315 317 316 315 315 313 308 300 291
223 223 223 224 224 225 227 228 229 230 230 231 231 231 231 231 230 230 229 229 228 227 227 228 228 226 223 221 221 221 221 222 224 225 225 224 224 224 222 220 218 216 215 215 214 214 215 217 220 223 226 229 232 234 237 242 246 251 255 258 261 265 268 271 273 273 271 270 271 272 275 280 281 285 293 296 301 307 310 313 314 313 312 312 311 308 303 295
223 224 224 224 224 225 226 227 228 229 230 230 231 231 231 232 232 232 231 230 229 228 227 227 228 227 224 223 223 222 223 224 225 226 226 225 224 223 221 219 218 217 216 217 217 217 217 219 221 224 227 229 231 233 237 242 246 250 254 258 262 267 272 275 277 278 275 274 274 275 278 281 284 289 293 295 300 304 308 311 310 310 310 309 308 306 303 300
222 223 224 224 224 224 225 226 227 228 229 230 230 230 231 231 232 232 232 231 230 228 227 227 228 227 225 224 223 223 224 225 225 227 227 226 225 223 222 220 219 219 219 219 219 220 220 221 223 224 226 229 231 235 238 242 246 250 252 257 264 270 272 275 278 278 277 277 278 280 282 286 288 292 295 297 301 304 306 308 307 309 309 307 305 303 302 300
223 223 223 225 225 225 225 225 226 227 228 229 230 230 230 231 231 232 232 232 231 229 228 227 227 227 226 225 224 224 224 225 226 227 227 227 226 224 223 222 222 221 222 222 222 222 223 224 225 226 227 230 233 237 240 243 246 249 252 258 265 269 271 272 275 276 278 279 280 282 286 291 290 291 296 299 302 304 306 307 307 307 306 305 303 301 300 298
225 224 223 224 225 226 225 225 225 225 227 228 229 229 230 230 231 231 231 231 231 230 229 228 228 228 228 226 225 225 225 225 226 227 227 227 226 226 225 225 224 224 224 224 224 225 225 226 227 228 229 233 236 239 241 244 247 251 257 261 263 265 268 271 274 276 277 279 280 282 287 292 290 292 297 299 301 304 307 307 306 305 304 303 301 300 298 296
227 226 225 224 224 225 226 226 226 225 225 226 227 228 229 230 230 231 231 231 230 230 229 229 228 229 228 227 227 226 225 225 227 228 229 228 227 227 227 227 226 226 226 227 227 227 228 228 229 230 232 235 239 241 243 246 251 256 259 261 262 265 268 272 274 275 276 278 280 283 285 287 289 294 297 297 300 305 307 306 304 303 303 302 300 299 297 296
228 227 227 226 225 225 225 226 227 226 226 226 226 227 229 230 230 230 231 231 230 230 230 229 229 229 229 228 228 227 226 226 227 228 229 229 228 228 228 228 228 228 228 229 229 230 230 231 232 233 236 238 240 244 247 251 255 257 259 260 262 266 270 271 272 274 276 278 280 283 284 284 287 292 295 296 300 305 306 304 303 303 302 299 298 297 297 295
229 229 228 227 227 226 226 226 227 227 227 227 227 227 228 229 230 230 230 231 231 231 230 230 229 229 229 229 229 228 227 226 227 228 229 230 229 229 229 229 229 230 230 231 232 232 233 234 235 236 238 240 243 247 250 253 255 257 259 261 264 266 269 270 271 274 276 277 279 282 282 283 285 287 290 294 299 303 303 302 303 303 300 297 297 296 293 292
230 229 228 228 227 227 227 227 227 227 228 228 228 228 228 229 229 229 229 230 231 231 230 230 230 230 230 230 230 230 228 227 227 229 230 230 231 230 230 231 231 232 232 233 233 234 235 236 237 238 240 244 246 249 252 254 256 258 261 262 264 266 267 270 272 274 276 277 279 280 280 282 283 284 286 291 296 300 301 302 303 301 297 296 295 293 290 289
234 230 229 229 228 227 228 228 228 228 228 229 229 229 229 229 229 229 229 230 230 230 230 230 231 231 231 231 231 231 230 229 229 229 230 231 232 232 232 232 233 233 233 234 235 236 237 238 238 240 243 247 249 251 253 255 257 260 262 263 265 266 268 270 272 275 276 278 279 280 279 279 281 282 286 290 292 296 299 300 301 298 295 294 293 291 290 290
237 234 230 229 228 228 228 228 229 229 229 229 230 230 230 230 230 230 230 230 230 230 230 230 231 231 231 232 232 232 232 231 230 230 230 231 232 233 233 233 234 234 235 236 237 238 239 240 240 242 245 248 251 253 255 256 258 260 262 264 266 268 270 270 273 275 278 279 280 281 279 277 279 282 286 291 291 294 298 299 299 296 294 293 293 292 291 289
235 236 234 230 229 229 229 228 229 230 230 230 230 231 232 232 232 231 231 231 230 230 231 230 231 231 232 233 233 233 233 232 232 231 231 231 232 233 234 234 235 236 236 237 239 239 240 241 242 244 247 249 252 254 256 257 259 260 263 265 267 269 271 273 275 276 277 279 281 283 280 276 277 282 287 292 292 295 298 299 300 299 297 296 295 293 291 288
232 234 236 235 231 229 229 229 229 230 231 231 232 232 232 233 233 234 234 234 231 230 231 232 232 232 232 233 233 234 234 234 234 234 234 233 234 234 235 235 236 237 238 239 240 240 241 243 245 246 248 250 253 255 256 258 259 261 263 265 268 270 273 275 276 277 278 279 281 283 281 277 277 281 287 290 291 295 299 300 301 302 301 299 296 293 290 287
231 232 233 236 236 233 230 229 230 231 231 232 233 233 234 234 235 235 237 238 234 230 231 233 233 233 234 235 235 235 235 234 235 236 236 235 235 235 236 237 237 238 239 240 241 242 243 245 246 247 249 251 253 254 256 258 259 261 263 266 269 271 274 275 277 279 280 280 280 280 281 280 278 281 287 288 289 294 299 301 302 303 302 299 295 290 286 285
231 231 231 233 236 236 234 231 231 231 232 233 233 234 235 236 237 237 239 241 236 230 232 234 234 234 235 236 237 237 237 234 236 238 237 238 237 237 237 238 238 239 240 242 242 243 244 246 247 248 249 250 252 254 256 258 260 262 264 267 269 271 274 275 277 279 281 282 280 279 282 284 281 281 285 285 288 295 299 301 303 303 302 298 292 286 283 282
232 231 231 231 234 236 236 234 233 232 232 234 235 235 235 236 238 238 240 242 237 231 232 234 235 236 235 236 237 238 237 235 236 238 238 239 239 238 238 238 239 239 240 241 242 242 243 244 246 247 248 250 252 255 257 259 261 264 266 267 268 270 272 274 276 279 282 282 278 279 284 286 284 283 283 285 289 294 297 301 304 305 303 295 287 282 282 282
234 233 232 231 232 233 234 236 235 234 234 234 235 236 237 237 238 239 240 241 237 234 234 234 235 237 237 237 237 238 238 236 236 237 237 238 239 238 239 239 239 240 241 241 242 242 243 244 246 248 250 252 254 256 258 260 263 264 266 267 268 269 269 273 276 280 283 280 277 281 286 288 285 281 282 288 290 292 296 302 306 305 300 292 285 281 282 282
235 235 233 233 232 231 232 234 235 237 237 237 237 237 237 238 238 239 240 240 238 237 237 235 234 236 238 239 239 239 239 238 238 238 237 238 239 239 239 239 240 240 241 242 242 243 244 246 247 249 251 254 256 258 260 261 263 263 264 265 267 268 270 274 276 279 280 277 278 283 286 288 284 279 283 290 290 292 297 303 305 303 297 290 286 283 281 281
234 234 233 233 233 233 232 233 234 236 238 239 240 239 239 239 238 239 240 240 240 240 239 237 235 235 237 239 240 240 240 239 239 240 239 239 240 240 240 240 241 242 243 243 244 245 247 248 250 252 253 255 257 258 259 260 260 261 263 265 268 270 272 273 275 277 278 279 282 284 285 285 281 279 286 291 291 295 299 302 304 301 294 289 287 283 281 281
235 234 233 232 232 233 232 232 235 235 235 239 240 239 240 239 238 240 241 241 241 240 239 239 237 236 237 238 239 240 240 240 240 240 241 240 240 241 241 242 243 244 245 245 246 247 248 249 251 252 252 253 255 256 257 259 260 262 263 265 268 270 271 272 274 276 278 280 282 283 283 281 277 280 288 291 293 296 298 300 301 299 293 289 286 282 279 280
234 234 234 233 232 232 231 231 234 235 234 235 237 238 240 240 240 243 244 243 243 243 242 242 240 238 237 236 237 237 238 240 240 240 241 241 240 240 240 241 242 244 245 245 246 247 248 248 249 251 252 254 255 257 258 260 261 262 263 264 265 267 270 273 276 277 278 281 281 280 280 278 277 283 288 289 292 294 296 298 298 297 295 289 285 281 277 277
234 234 234 234 232 232 231 230 232 235 234 233 234 236 238 240 242 245 243 242 244 245 245 245 244 243 241 239 238 238 238 239 240 241 242 241 241 240 240 241 242 244 245 246 247 248 249 249 250 253 254 255 256 257 259 260 260 260 261 262 263 267 272 275 276 277 279 280 278 277 277 277 280 286 288 288 290 291 294 295 294 295 294 290 287 283 278 275
232 233 233 234 233 232 232 231 231 233 235 235 236 236 238 239 240 242 241 241 244 245 245 246 246 245 245 243 242 242 241 241 241 242 243 243 243 242 242 243 244 245 246 247 249 250 252 252 252 253 255 256 256 257 258 259 260 261 261 262 265 270 273 273 274 276 278 278 277 277 277 278 282 285 286 288 290 291 293 293 292 292 292 290 289 285 280 278
231 231 232 233 233 233 233 232 232 232 234 236 238 238 237 237 238 240 241 241 244 245 245 247 247 246 246 245 244 244 244 244 243 244 244 245 245 244 243 244 245 246 247 249 251 251 253 253 252 253 254 254 255 257 257 258 260 260 261 264 267 269 269 270 272 274 276 277 277 278 278 279 281 282 283 287 289 289 290 289 288 288 289 289 288 286 283 281
231 231 231 231 232 233 233 233 233 234 234 236 238 239 237 236 235 237 238 238 241 242 243 245 246 246 246 245 244 243 244 245 245 245 245 246 246 244 244 245 246 247 249 251 254 254 254 254 252 253 254 254 255 256 257 258 260 261 263 264 266 266 266 268 270 272 274 276 277 278 278 279 279 279 282 287 287 287 287 285 285 285 285 286 287 286 284 282
232 231 230 230 231 232 232 232 233 235 236 236 238 238 237 235 233 234 235 236 237 239 240 241 242 243 244 244 244 243 243 244 244 244 244 244 244 242 242 244 245 246 248 250 253 253 254 255 254 253 254 254 255 256 257 258 260 261 263 264 264 264 266 268 269 271 273 275 277 277 277 277 277 279 283 285 285 285 285 284 283 284 283 284 285 284 282 282
233 232 230 230 231 231 232 232 232 233 235 235 236 236 236 235 233 234 235 235 236 237 238 238 240 242 242 243 244 244 244 244 244 245 244 244 243 240 240 242 243 243 245 247 250 251 252 254 253 252 253 254 254 254 255 257 260 262 263 263 264 265 267 267 268 269 271 273 276 277 276 275 277 281 283 283 284 283 281 280 281 282 282 282 280 279 280 281
234 233 231 230 231 232 232 232 233 233 234 236 237 237 237 235 234 235 236 236 237 238 238 238 240 242 241 241 243 245 247 247 246 246 246 246 244 242 241 242 243 244 245 247 249 250 251 252 252 252 252 253 253 254 256 258 259 261 261 262 263 264 266 266 267 269 270 271 273 275 276 276 278 281 281 281 282 278 276 280 281 280 281 280 278 277 277 279
233 233 231 231 232 232 232 233 234 234 234 235 236 237 237 236 235 236 236 237 238 239 239 240 241 242 243 243 243 246 249 250 250 249 248 247 245 244 243 244 245 246 247 249 250 251 252 254 254 253 253 254 255 256 257 257 258 259 259 260 262 263 264 265 266 267 268 269 271 274 276 276 277 280 280 280 278 275 276 282 283 281 281 279 277 277 276 278
233 232 232 232 233 233 234 234 234 235 235 233 233 235 237 236 235 236 237 238 239 240 240 241 241 242 243 243 244 245 247 249 251 250 250 249 247 245 245 245 246 246 247 249 250 251 253 254 254 253 253 254 254 255 255 256 257 257 258 260 261 262 263 263 265 267 269 270 271 274 275 274 274 278 278 277 275 275 279 283 283 283 282 279 277 276 277 279
234 232 232 233 234 234 235 235 234 234 235 234 233 234 236 236 235 235 236 237 239 240 240 241 242 242 243 244 244 246 246 248 250 251 251 250 248 246 247 247 248 247 247 248 250 251 253 253 253 253 253 253 253 253 254 255 256 257 259 261 261 262 263 264 265 266 267 268 271 274 274 272 272 274 274 273 274 277 282 284 282 281 279 279 279 278 278 280
236 233 232 233 234 234 235 236 235 235 235 234 233 234 235 236 236 235 236 237 238 239 240 241 242 243 244 245 247 248 249 250 252 252 252 250 247 246 248 249 249 249 248 249 251 253 255 255 255 255 254 253 253 253 254 255 256 258 260 261 263 264 264 264 265 266 267 269 271 272 272 269 268 269 269 270 272 276 280 281 281 280 280 279 279 278 280 281
237 234 232 233 234 234 234 235 236 237 236 235 235 234 234 235 236 237 237 238 237 238 239 240 241 242 244 245 247 248 249 250 251 251 250 249 247 246 247 249 250 250 250 251 252 253 255 254 253 252 253 254 254 255 256 258 259 260 261 263 264 264 265 265 265 265 266 267 267 267 268 268 267 266 265 267 271 275 278 278 278 279 280 281 282 283 284 282
238 236 233 233 235 235 235 234 235 236 236 235 235 235 235 235 236 237 237 237 237 237 238 240 241 242 243 244 245 247 248 248 248 248 248 248 247 247 248 250 251 251 252 253 255 255 255 254 251 251 253 255 256 258 259 259 259 259 260 261 261 261 262 262 261 261 264 265 263 264 267 268 266 266 267 269 272 275 277 277 276 275 277 280 283 285 284 281
238 237 235 235 235 236 236 234 234 235 236 235 236 236 236 235 235 236 237 237 237 237 237 239 240 242 243 244 245 246 247 248 249 247 246 247 248 249 249 251 253 252 253 256 257 257 258 256 254 254 255 256 257 258 259 258 258 258 258 258 258 259 259 259 259 261 263 263 263 264 267 266 265 267 269 271 273 273 274 273 274 275 278 280 281 281 281 281
238 237 236 237 237 236 236 235 235 235 235 236 236 236 236 236 235 235 236 237 237 237 237 237 238 240 242 244 246 247 248 249 250 248 247 247 248 250 250 252 254 254 256 258 258 259 260 259 259 259 260 259 258 258 259 259 259 259 258 257 257 257 257 258 259 261 262 263 263 265 266 264 263 264 266 268 269 270 270 272 275 277 278 277 277 278 279 280
238 237 236 237 238 237 237 236 236 235 234 234 236 236 236 236 235 235 236 237 237 237 237 238 238 239 242 243 245 246 247 248 249 249 248 249 250 251 252 253 253 255 258 260 260 259 259 259 259 260 259 260 260 261 262 262 261 260 259 258 257 256 256 257 259 260 260 261 262 262 263 263 263 264 265 266 267 268 270 273 275 275 274 275 277 278 278 279
237 237 237 237 238 237 237 236 236 236 234 232 233 234 235 235 235 235 236 237 237 237 238 239 240 240 241 243 243 244 245 247 249 249 250 251 252 252 252 252 253 255 256 255 252 250 249 251 253 254 255 256 258 261 262 261 261 261 260 258 257 256 257 258 259 258 257 259 262 263 263 264 265 267 268 268 268 268 267 267 268 270 272 274 275 275 276 277
237 236 236 237 238 237 237 236 236 237 236 233 233 232 233 234 234 234 235 236 237 238 238 239 240 240 240 240 240 241 244 247 249 250 250 251 251 250 251 250 250 252 251 247 244 243 245 246 246 251 255 253 252 255 256 256 257 255 254 256 258 260 261 260 259 257 257 261 263 262 263 267 270 270 268 265 264 263 263 264 266 267 268 269 270 272 274 276
238 237 236 237 237 236 236 236 236 236 236 235 235 234 233 233 233 233 234 234 235 237 237 237 237 237 238 238 238 241 244 246 247 247 247 247 248 249 250 247 246 247 247 245 244 243 245 245 244 251 259 256 249 249 250 251 251 249 251 259 263 261 260 258 256 257 259 261 261 260 264 269 268 264 262 260 261 264 266 267 267 266 266 268 270 272 274 276
Height
5794 5796 5799 5801 5803 5805 5807 5809 5811 5813 5815 5817 5818 5820 5821 5823 5824 5826 5827 5828 5829 5830 5831 5833 5834 5835 5836 5838 5839 5840 5841 5842 5844 5845 5846 5847 5849 5850 5852 5853 5855 5856 5858 5859 5860 5861 5862 5863 5864 5865 5866 5868 5869 5870 5871 5872 5873 5873 5874 5874 5874 5875 5875 5875 5876 5876 5876 5876 5876 5876 5876 5876 5876 5876 5876 5876 5876 5876 5875 5875 5875 5875 5875 5875 5875 5875 5875 5875
5791 5793 5796 5799 5801 5803 5805 5807 5809 5811 5813 5815 5816 5818 5820 5821 5823 5824 5825 5826 5828 5829 5830 5831 5832 5834 5835 5836 5837 5839 5840 5841 5843 5844 5845 5847 5848 5850 5851 5852 5854 5856 5857 5858 5859 5860 5861 5862 5863 5864 5866 5867 5868 5869 5870 5871 5872 5872 5873 5873 5874 5874 5875 5875 5875 5875 5875 5875 5875 5875 5876 5876 5876 5876 5875 5875 5875 5875 5875 5875 5874 5874 5874 5874 5874 5874 5874 5874
5788 5790 5793 5796 5798 5801 5803 5805 5807 5809 5811 5813 5814 5816 5818 5819 5821 5822 5823 5825 5826 5827 5828 5830 5831 5832 5833 5835 5836 5837 5839 5840 5842 5843 5845 5846 5848 5849 5850 5852 5853 5855 5856 5857 5858 5859 5860 5862 5863 5864 5865 5866 5867 5868 5869 5870 5870 5871 5872 5872 5873 5873 5874 5874 5874 5874 5874 5874 5874 5874 5875 5875 5875 5875 5874 5874 5874 5874 5874 5874 5873 5874 5873 5873 5873 5873 5873 5873
5785 5788 5790 5793 5795 5798 5800 5802 5805 5807 5808 5810 5812 5814 5816 5817 5819 5820 5822 5823 5824 5826 5827 5828 5829 5831 5832 5833 5835 5836 5838 5839 5841 5842 5844 5845 5847 5848 5850 5851 5852 5854 5855 5856 5857 5859 5860 5861 5862 5863 5864 5865 5866 5867 5868 5868 5869 5870 5871 5871 5872 5873 5873 5873 5873 5873 5873 5873 5873 5873 5874 5874 5874 5873 5873 5873 5873 5873 5873 5873 5873 5873 5873 5872 5872 5872 5873 5872
5782 5785 5787 5790 5792 5795 5797 5799 5802 5804 5806 5808 5810 5812 5813 5815 5817 5818 5820 5821 5823 5824 5825 5827 5828 5829 5830 5832 5833 5835 5837 5838 5840 5842 5843 5845 5846 5847 5849 5850 5851 5853 5854 5855 5856 5858 5859 5860 5861 5862 5863 5864 5865 5866 5867 5867 5868 5869 5870 5870 5871 5872 5872 5872 5872 5872 5872 5872 5872 5872 5873 5873 5873 5872 5872 5872 5872 5872 5872 5872 5872 5872 5872 5871 5871 5871 5871 5871
5778 5781 5784 5787 5789 5792 5794 5796 5799 5801 5803 5805 5807 5809 5811 5813 5814 5816 5818 5819 5821 5822 5823 5825 5826 5828 5829 5831 5832 5834 5835 5837 5839 5840 5842 5843 5845 5846 5848 5849 5850 5852 5853 5854 5855 5856 5857 5858 5859 5861 5862 5863 5863 5864 5865 5866 5867 5868 5868 5869 5870 5870 5871 5871 5871 5871 5871 5871 5871 5871 5871 5872 5871 5871 5871 5871 5871 5871 5871 5871 5871 5871 5870 5870 5870 5870 5870 5870
5775 5778 5781 5784 5786 5789 5791 5793 5795 5798 5800 5802 5804 5806 5808 5810 5812 5814 5816 5817 5819 5820 5822 5823 5825 5826 5828 5829 5831 5833 5834 5836 5838 5839 5841 5842 5844 5845 5846 5848 5849 5850 5852 5853 5854 5855 5856 5857 5858 5859 5860 5861 5862 5863 5864 5865 5866 5866 5867 5868 5868 5869 5869 5870 5870 5870 5870 5870 5870 5870 5870 5870 5870 5870 5870 5870 5870 5870 5870 5869 5869 5869 5869 5869 5869 5868 5868 5868
5772 5775 5778 5781 5783 5786 5788 5790 5792 5794 5797 5799 5801 5803 5806 5808 5810 5811 5813 5815 5817 5818 5820 5821 5823 5825 5826 5828 5830 5831 5833 5835 5836 5838 5839 5841 5842 5844 5845 5846 5848 5849 5850 5851 5852 5854 5855 5856 5857 5858 5859 5860 5861 5862 5863 5863 5864 5865 5866 5867 5867 5867 5868 5868 5868 5869 5869 5868 5869 5869 5869 5869 5869 5868 5868 5869 5869 5869 5868 5868 5868 5868 5868 5868 5867 5867 5867 5867
5768 5771 5774 5777 5780 5782 5785 5787 5789 5791 5794 5796 5798 5800 5802 5805 5807 5809 5811 5813 5814 5816 5818 5820 5821 5823 5825 5826 5828 5830 5832 5833 5835 5836 5838 5839 5841 5842 5843 5845 5846 5847 5848 5850 5851 5852 5853 5854 5855 5856 5858 5859 5860 5861 5861 5862 5863 5864 5865 5865 5866 5866 5866 5866 5867 5867 5867 5867 5867 5867 5868 5868 5868 5867 5867 5868 5868 5867 5867 5866 5866 5866 5866 5866 5866 5865 5865 5865
5763 5766 5769 5772 5776 5779 5782 5784 5786 5788 5791 5793 5795 5797 5799 5801 5803 5806 5808 5810 5812 5814 5816 5818 5819 5822 5823 5825 5827 5828 5830 5832 5833 5835 5836 5838 5839 5840 5842 5843 5844 5846 5847 5848 5849 5851 5852 5853 5854 5855 5856 5857 5858 5859 5860 5861 5862 5862 5863 5863 5864 5864 5864 5865 5866 5866 5866 5866 5866 5866 5867 5867 5866 5865 5865 5867 5866 5866 5866 5865 5865 5865 5865 5865 5864 5864 5864 5863
5759 5762 5765 5768 5771 5774 5777 5780 5783 5786 5788 5790 5792 5794 5796 5798 5800 5802 5804 5807 5809 5811 5813 5815 5817 5819 5821 5823 5825 5826 5828 5830 5831 5833 5835 5836 5838 5839 5840 5841 5843 5844 5845 5847 5848 5849 5850 5851 5852 5853 5855 5856 5857 5858 5858 5859 5860 5861 5861 5862 5862 5863 5863 5863 5864 5865 5865 5865 5865 5865 5865 5865 5865 5864 5864 5865 5865 5865 5865 5864 5864 5864 5863 5863 5863 5863 5863 5862
5755 5758 5761 5764 5767 5770 5773 5776 5779 5782 5785 5787 5789 5791 5793 5794 5796 5799 5801 5803 5806 5808 5810 5812 5815 5817 5819 5821 5822 5824 5826 5828 5830 5831 5833 5834 5836 5837 5838 5840 5841 5842 5843 5845 5846 5847 5848 5850 5851 5852 5853 5854 5855 5856 5857 5857 5858 5859 5859 5860 5861 5861 5862 5862 5863 5863 5863 5863 5863 5863 5864 5864 5863 5863 5863 5863 5864 5863 5863 5863 5863 5862 5862 5862 5861 5861 5861 5861
5752 5754 5757 5760 5763 5766 5769 5772 5775 5778 5780 5783 5785 5787 5789 5791 5793 5795 5798 5800 5802 5805 5807 5809 5811 5814 5816 5818 5820 5822 5824 5826 5828 5829 5831 5833 5834 5835 5837 5838 5839 5840 5842 5843 5844 5845 5847 5848 5849 5850 5851 5852 5853 5854 5855 5856 5857 5857 5858 5858 5859 5860 5860 5861 5861 5862 5862 5862 5862 5861 5863 5863 5861 5862 5862 5861 5862 5862 5862 5862 5861 5861 5860 5860 5860 5859 5859 5859
5748 5750 5753 5756 5758 5761 5764 5767 5770 5773 5776 5778 5781 5783 5786 5788 5790 5792 5794 5797 5799 5801 5803 5806 5808 5811 5813 5815 5817 5820 5822 5824 5826 5827 5829 5831 5832 5833 5835 5836 5837 5839 5840 5841 5842 5844 5845 5846 5847 5849 5850 5850 5851 5852 5853 5854 5855 5855 5856 5857 5857 5858 5859 5859 5859 5859 5859 5860 5860 5860 5861 5861 5859 5859 5860 5860 5860 5860 5860 5860 5860 5859 5859 5858 5858 5857 5857 5857
5744 5747 5749 5752 5754 5757 5760 5763 5766 5769 5772 5774 5777 5779 5782 5784 5787 5789 5791 5794 5796 5798 5800 5802 5805 5807 5810 5812 5814 5817 5819 5821 5823 5825 5827 5828 5830 5831 5832 5834 5835 5837 5838 5839 5841 5842 5843 5844 5845 5847 5848 5849 5849 5850 5851 5852 5853 5853 5854 5855 5856 5857 5857 5857 5857 5857 5857 5857 5858 5857 5859 5860 5858 5857 5858 5858 5858 5858 5859 5858 5858 5858 5857 5856 5856 5855 5855 5855
5741 5743 5745 5748 5751 5753 5756 5759 5762 5765 5767 5770 5773 5775 5778 5780 5782 5785 5788 5790 5792 5795 5797 5799 5801 5804 5807 5809 5811 5814 5816 5818 5820 5822 5824 5826 5827 5829 5830 5832 5833 5835 5836 5837 5838 5840 5841 5842 5843 5844 5846 5846 5847 5848 5849 5850 5851 5851 5852 5854 5854 5855 5855 5855 5855 5855 5854 5855 5855 5855 5857 5858 5856 5855 5855 5856 5856 5856 5857 5856 5856 5855 5855 5854 5854 5853 5853 5853
5737 5739 5742 5744 5747 5749 5752 5755 5758 5760 5763 5766 5769 5771 5774 5776 5778 5781 5784 5786 5789 5791 5793 5796 5798 5801 5803 5806 5808 5810 5812 5814 5817 5819 5821 5823 5825 5826 5828 5829 5831 5832 5833 5835 5836 5837 5838 5840 5841 5842 5843 5844 5845 5846 5846 5847 5848 5849 5850 5852 5852 5852 5852 5853 5852 5852 5852 5852 5853 5853 5855 5856 5854 5853 5854 5854 5854 5854 5855 5854 5854 5853 5852 5851 5851 5850 5850 5850
5734 5736 5738 5741 5743 5746 5748 5751 5754 5756 5759 5762 5765 5767 5770 5772 5774 5777 5779 5782 5784 5787 5789 5792 5795 5797 5799 5802 5804 5806 5809 5811 5813 5815 5817 5820 5822 5823 5825 5826 5828 5829 5830 5832 5833 5834 5836 5837 5838 5840 5841 5842 5842 5842 5843 5845 5846 5847 5849 5849 5849 5850 5850 5850 5850 5849 5849 5849 5850 5851 5852 5854 5853 5852 5851 5851 5852 5853 5853 5852 5851 5850 5850 5849 5848 5847 5847 5847
5730 5733 5735 5737 5739 5741 5744 5747 5750 5752 5755 5758 5760 5763 5766 5768 5771 5773 5775 5778 5780 5782 5784 5787 5790 5792 5795 5798 5800 5802 5805 5808 5810 5812 5814 5816 5818 5820 5822 5823 5825 5826 5828 5829 5830 5832 5833 5834 5836 5838 5839 5839 5839 5839 5841 5843 5844 5845 5845 5846 5847 5847 5848 5847 5846 5846 5846 5846 5848 5848 5849 5851 5852 5851 5849 5848 5849 5851 5850 5850 5849 5848 5847 5846 5845 5845 5844 5844
5726 5729 5731 5733 5735 5738 5740 5743 5746 5749 5751 5754 5756 5759 5761 5764 5767 5769 5771 5773 5775 5777 5779 5782 5785 5788 5791 5794 5796 5799 5801 5804 5806 5808 5810 5813 5815 5816 5818 5819 5821 5823 5825 5826 5828 5829 5830 5832 5834 5835 5836 5835 5836 5838 5839 5841 5841 5841 5842 5843 5844 5845 5845 5844 5843 5844 5843 5843 5845 5845 5845 5848 5850 5849 5848 5846 5847 5848 5848 5847 5847 5846 5844 5843 5842 5842 5841 5840
5721 5724 5727 5729 5731 5734 5736 5739 5742 5745 5747 5750 5752 5755 5757 5759 5761 5763 5765 5767 5769 5771 5775 5778 5781 5784 5787 5790 5792 5795 5797 5800 5802 5804 5807 5809 5811 5813 5815 5817 5818 5820 5822 5823 5824 5826 5827 5829 5832 5832 5832 5832 5834 5836 5837 5837 5838 5838 5839 5840 5841 5842 5842 5841 5840 5841 5840 5840 5842 5842 5842 5844 5846 5847 5847 5845 5845 5845 5845 5844 5844 5843 5841 5840 5839 5839 5838 5837
5715 5718 5722 5724 5727 5730 5732 5736 5738 5740 5743 5746 5749 5751 5752 5753 5755 5758 5760 5762 5764 5767 5770 5774 5777 5780 5783 5786 5789 5791 5794 5796 5799 5801 5803 5806 5807 5809 5811 5813 5815 5816 5818 5819 5820 5822 5824 5827 5829 5828 5829 5830 5832 5833 5834 5834 5835 5836 5836 5837 5837 5838 5838 5838 5837 5837 5837 5837 5838 5839 5838 5840 5842 5843 5844 5844 5843 5843 5842 5842 5841 5840 5838 5837 5837 5836 5835 5835
5710 5713 5716 5719 5723 5725 5728 5731 5734 5737 5739 5742 5744 5745 5746 5748 5750 5752 5754 5756 5759 5762 5766 5770 5773 5776 5779 5782 5785 5788 5790 5792 5795 5797 5799 5801 5803 5805 5807 5809 5810 5812 5814 5816 5817 5819 5821 5824 5824 5825 5826 5828 5828 5830 5831 5831 5832 5832 5832 5833 5834 5834 5834 5834 5835 5834 5834 5833 5833 5834 5833 5835 5838 5840 5842 5841 5840 5841 5840 5838 5838 5836 5835 5835 5834 5833 5832 5832
5706 5708 5710 5714 5718 5721 5724 5727 5730 5733 5734 5738 5740 5739 5741 5743 5745 5747 5749 5750 5753 5758 5762 5765 5768 5772 5776 5777 5780 5783 5786 5788 5790 5792 5795 5796 5798 5800 5803 5804 5806 5809 5811 5812 5813 5816 5818 5819 5821 5822 5823 5824 5826 5827 5828 5828 5828 5829 5829 5830 5830 5830 5830 5830 5831 5831 5831 5830 5830 5829 5827 5829 5834 5836 5838 5838 5836 5837 5837 5835 5834 5832 5831 5831 5831 5830 5829 5828
5702 5704 5707 5710 5712 5716 5720 5723 5727 5728 5730 5734 5733 5733 5736 5739 5741 5743 5743 5744 5748 5754 5757 5761 5765 5769 5771 5773 5777 5780 5781 5784 5787 5789 5791 5793 5794 5796 5798 5800 5803 5805 5807 5808 5809 5812 5815 5816 5818 5819 5820 5821 5823 5824 5824 5824 5824 5825 5826 5826 5826 5826 5827 5827 5827 5827 5828 5828 5827 5826 5820 5820 5828 5833 5835 5835 5833 5834 5833 5831 5830 5828 5827 5827 5827 5826 5825 5824
5697 5699 5703 5706 5708 5712 5715 5719 5722 5722 5727 5728 5726 5729 5733 5735 5736 5738 5739 5738 5741 5750 5754 5757 5761 5764 5768 5770 5774 5775 5775 5780 5784 5784 5787 5789 5790 5792 5794 5796 5799 5801 5803 5804 5805 5809 5812 5813 5814 5816 5817 5818 5819 5819 5820 5819 5820 5822 5823 5823 5822 5823 5823 5823 5823 5823 5823 5824 5823 5823 5817 5813 5820 5828 5831 5830 5830 5831 5830 5828 5826 5825 5824 5824 5823 5822 5821 5820
5691 5694 5698 5700 5703 5707 5711 5714 5715 5718 5722 5721 5722 5726 5728 5730 5731 5733 5734 5730 5734 5747 5752 5753 5757 5761 5765 5767 5768 5769 5771 5778 5781 5779 5782 5784 5785 5788 5790 5793 5796 5797 5798 5799 5801 5806 5809 5809 5810 5812 5813 5813 5815 5816 5815 5815 5816 5818 5820 5820 5819 5820 5819 5819 5819 5819 5819 5820 5818 5818 5815 5809 5811 5822 5827 5826 5827 5828 5827 5824 5822 5822 5821 5820 5819 5818 5817 5816
5685 5688 5692 5695 5698 5702 5706 5708 5710 5714 5716 5715 5719 5721 5722 5726 5725 5728 5728 5722 5730 5745 5747 5750 5754 5757 5760 5761 5763 5763 5767 5774 5774 5774 5778 5779 5780 5783 5785 5788 5790 5791 5792 5793 5797 5802 5803 5803 5805 5806 5807 5809 5811 5812 5811 5811 5813 5814 5816 5815 5815 5816 5815 5815 5815 5815 5816 5815 5813 5813 5813 5806 5804 5813 5820 5821 5824 5825 5822 5821 5819 5818 5818 5816 5815 5813 5813 5813
5679 5682 5686 5689 5692 5696 5700 5703 5706 5709 5710 5713 5715 5715 5718 5720 5719 5722 5718 5716 5730 5741 5743 5747 5751 5751 5754 5756 5758 5759 5763 5767 5767 5770 5772 5772 5774 5777 5779 5783 5784 5784 5786 5788 5793 5796 5796 5798 5801 5802 5804 5806 5807 5807 5807 5808 5809 5810 5811 5810 5811 5811 5811 5812 5811 5812 5813 5810 5810 5810 5808 5804 5800 5804 5813 5818 5820 5819 5817 5817 5816 5814 5814 5812 5811 5810 5809 5809
5672 5676 5681 5683 5686 5690 5694 5698 5702 5704 5706 5708 5708 5711 5713 5712 5714 5713 5707 5715 5733 5737 5738 5743 5745 5747 5749 5750 5753 5755 5757 5760 5762 5765 5765 5766 5769 5771 5774 5776 5777 5779 5781 5784 5788 5790 5791 5794 5796 5798 5801 5802 5803 5803 5804 5804 5805 5806 5806 5805 5806 5806 5807 5808 5808 5809 5808 5805 5808 5807 5804 5802 5795 5794 5807 5815 5815 5815 5814 5813 5812 5811 5809 5808 5808 5807 5806 5806
5666 5670 5674 5678 5682 5685 5689 5694 5697 5699 5701 5703 5704 5706 5705 5705 5706 5701 5702 5721 5732 5730 5731 5735 5738 5743 5744 5746 5749 5750 5752 5754 5756 5758 5759 5762 5764 5765 5768 5771 5773 5775 5776 5780 5784 5786 5787 5789 5792 5794 5797 5798 5798 5798 5798 5799 5799 5800 5801 5801 5801 5801 5802 5803 5804 5804 5802 5802 5805 5803 5799 5798 5790 5790 5803 5808 5809 5810 5809 5808 5808 5807 5806 5805 5805 5804 5803 5802
5661 5664 5668 5672 5676 5680 5685 5689 5691 5693 5697 5700 5700 5700 5698 5696 5693 5692 5707 5724 5723 5719 5724 5727 5733 5739 5740 5741 5742 5744 5746 5747 5749 5751 5753 5756 5757 5760 5764 5766 5769 5770 5772 5777 5781 5781 5782 5784 5787 5789 5790 5792 5792 5792 5793 5794 5795 5796 5797 5797 5797 5797 5797 5798 5800 5799 5798 5800 5802 5798 5793 5789 5785 5790 5800 5803 5804 5805 5805 5804 5802 5802 5803 5802 5802 5801 5800 5799
5654 5658 5662 5666 5671 5676 5679 5683 5684 5687 5692 5695 5692 5693 5691 5684 5684 5695 5711 5717 5712 5714 5719 5722 5729 5732 5731 5733 5735 5737 5740 5740 5743 5745 5747 5749 5751 5755 5758 5760 5764 5765 5768 5773 5773 5773 5776 5778 5781 5782 5784 5787 5787 5788 5789 5790 5791 5791 5792 5792 5792 5793 5792 5793 5795 5793 5793 5797 5797 5793 5788 5782 5781 5790 5796 5799 5801 5800 5800 5801 5798 5796 5799 5799 5798 5798 5797 5796
5648 5652 5655 5659 5665 5670 5672 5676 5679 5682 5686 5686 5683 5683 5680 5677 5685 5698 5705 5706 5707 5711 5714 5717 5722 5722 5723 5727 5729 5732 5734 5735 5738 5739 5740 5743 5745 5749 5754 5756 5759 5761 5764 5767 5766 5768 5770 5772 5777 5779 5779 5782 5783 5784 5784 5784 5784 5785 5786 5786 5787 5790 5789 5788 5789 5788 5789 5792 5791 5787 5782 5777 5780 5786 5790 5793 5796 5796 5796 5797 5794 5793 5794 5794 5794 5794 5792 5792
5642 5645 5649 5654 5659 5663 5666 5669 5673 5676 5677 5676 5674 5672 5670 5675 5686 5693 5697 5701 5704 5705 5708 5709 5710 5713 5717 5721 5724 5726 5728 5730 5734 5734 5734 5737 5740 5746 5750 5752 5755 5757 5760 5761 5762 5765 5764 5767 5774 5774 5773 5776 5777 5778 5778 5778 5778 5779 5781 5781 5783 5787 5786 5783 5783 5784 5784 5783 5783 5782 5778 5776 5778 5781 5783 5787 5790 5791 5791 5791 5790 5789 5789 5790 5790 5789 5788 5787
5635 5639 5643 5648 5652 5656 5659 5662 5666 5667 5668 5667 5663 5660 5665 5676 5683 5687 5692 5697 5697 5699 5702 5701 5702 5706 5709 5713 5717 5719 5722 5725 5728 5728 5730 5732 5736 5740 5744 5748 5751 5753 5755 5757 5758 5759 5758 5762 5767 5766 5767 5770 5770 5770 5771 5772 5772 5773 5775 5777 5780 5782 5780 5778 5777 5779 5780 5776 5776 5777 5774 5774 5775 5775 5778 5783 5785 5786 5787 5786 5786 5786 5786 5786 5785 5784 5783 5783
5628 5632 5637 5642 5647 5649 5651 5655 5658 5657 5658 5658 5653 5654 5664 5672 5677 5681 5686 5689 5690 5693 5695 5694 5696 5699 5702 5705 5709 5712 5714 5717 5719 5721 5724 5726 5729 5734 5740 5744 5746 5748 5751 5752 5751 5752 5752 5754 5758 5759 5760 5762 5764 5764 5765 5766 5767 5768 5770 5774 5775 5774 5774 5773 5772 5773 5774 5771 5771 5772 5769 5769 5770 5769 5774 5779 5779 5780 5781 5781 5782 5782 5783 5782 5780 5779 5779 5778
5621 5625 5631 5637 5640 5641 5644 5647 5649 5648 5648 5647 5645 5650 5658 5663 5671 5676 5679 5682 5684 5686 5687 5688 5690 5692 5695 5698 5702 5704 5705 5707 5710 5713 5717 5718 5721 5730 5736 5738 5740 5743 5746 5745 5742 5744 5745 5746 5749 5752 5753 5755 5757 5757 5758 5760 5762 5763 5765 5768 5768 5767 5768 5769 5767 5767 5768 5766 5766 5767 5765 5763 5764 5767 5771 5773 5773 5774 5774 5775 5776 5778 5779 5778 5776 5775 5774 5773
5614 5617 5624 5630 5631 5633 5635 5638 5639 5639 5637 5636 5638 5646 5653 5660 5668 5670 5670 5674 5677 5678 5681 5683 5685 5686 5688 5692 5696 5698 5698 5700 5703 5706 5709 5711 5716 5725 5731 5731 5734 5737 5738 5736 5734 5736 5738 5737 5739 5744 5745 5746 5747 5749 5753 5756 5757 5757 5759 5760 5761 5761 5762 5762 5761 5761 5762 5761 5761 5761 5760 5758 5759 5764 5767 5768 5768 5768 5768 5768 5770 5773 5775 5774 5772 5771 5769 5768
5605 5609 5616 5622 5623 5623 5626 5628 5628 5626 5626 5629 5635 5643 5650 5656 5660 5661 5664 5668 5668 5670 5674 5678 5679 5679 5682 5687 5689 5691 5693 5695 5698 5700 5702 5705 5711 5719 5724 5725 5727 5730 5730 5728 5727 5728 5729 5729 5732 5736 5736 5737 5740 5745 5750 5751 5751 5751 5752 5753 5755 5755 5755 5754 5754 5755 5756 5756 5756 5756 5754 5754 5757 5759 5760 5762 5762 5760 5761 5763 5764 5768 5770 5768 5767 5766 5765 5764
5596 5600 5609 5614 5613 5614 5617 5616 5615 5616 5619 5624 5631 5638 5644 5648 5650 5654 5659 5660 5659 5663 5668 5670 5672 5674 5677 5680 5683 5687 5689 5690 5693 5695 5696 5700 5706 5712 5717 5719 5720 5722 5721 5719 5720 5723 5723 5724 5726 5727 5728 5731 5737 5741 5742 5742 5742 5743 5744 5746 5748 5749 5748 5747 5746 5748 5749 5750 5751 5752 5750 5751 5755 5754 5753 5756 5755 5752 5755 5758 5758 5761 5764 5764 5763 5762 5761 5760
5587 5594 5602 5604 5603 5606 5607 5604 5606 5610 5611 5617 5627 5634 5636 5638 5643 5648 5651 5651 5652 5656 5660 5662 5666 5669 5671 5674 5678 5681 5683 5684 5687 5689 5692 5697 5701 5706 5710 5710 5710 5712 5712 5711 5714 5717 5717 5715 5716 5718 5722 5727 5729 5731 5731 5732 5734 5735 5736 5740 5742 5741 5740 5739 5739 5742 5744 5744 5747 5747 5744 5746 5751 5751 5749 5749 5747 5745 5749 5753 5753 5753 5755 5757 5759 5757 5756 5755
5580 5588 5594 5592 5593 5596 5595 5593 5598 5601 5604 5614 5626 5627 5625 5629 5636 5639 5641 5643 5646 5650 5654 5658 5662 5664 5665 5669 5672 5673 5675 5678 5679 5683 5688 5691 5696 5700 5702 5702 5702 5704 5704 5705 5708 5710 5708 5705 5707 5711 5714 5718 5719 5721 5724 5725 5726 5726 5729 5733 5734 5733 5734 5734 5735 5737 5737 5738 5743 5742 5738 5741 5747 5747 5744 5742 5741 5742 5744 5746 5746 5745 5746 5750 5753 5752 5750 5750
5574 5580 5583 5581 5583 5586 5584 5586 5592 5595 5601 5611 5616 5615 5617 5623 5627 5630 5633 5637 5642 5646 5649 5652 5656 5658 5660 5662 5664 5665 5669 5672 5674 5679 5683 5685 5690 5695 5695 5695 5696 5697 5699 5700 5702 5703 5700 5698 5702 5703 5704 5707 5710 5713 5715 5718 5718 5719 5723 5726 5726 5728 5728 5727 5729 5731 5729 5733 5739 5734 5730 5737 5742 5742 5740 5737 5736 5739 5740 5739 5739 5737 5737 5741 5745 5746 5745 5745
5565 5569 5572 5573 5574 5575 5576 5581 5587 5589 5595 5602 5603 5605 5611 5615 5618 5624 5629 5633 5636 5639 5640 5644 5648 5651 5653 5654 5656 5658 5661 5665 5669 5673 5676 5679 5685 5689 5690 5690 5690 5691 5694 5695 5695 5695 5692 5692 5694 5694 5693 5697 5702 5705 5709 5713 5713 5713 5717 5720 5720 5721 5720 5720 5723 5721 5721 5728 5730 5724 5725 5734 5737 5735 5734 5733 5734 5735 5734 5734 5734 5731 5729 5732 5736 5737 5738 5738
5553 5558 5564 5566 5565 5565 5569 5576 5580 5580 5585 5592 5593 5596 5602 5606 5612 5619 5622 5624 5627 5631 5634 5637 5641 5643 5644 5646 5648 5650 5653 5658 5661 5664 5669 5675 5680 5683 5684 5684 5684 5687 5689 5688 5687 5686 5684 5684 5686 5686 5686 5691 5698 5701 5703 5705 5704 5705 5709 5711 5711 5711 5711 5712 5712 5711 5715 5720 5718 5717 5723 5729 5729 5729 5729 5730 5730 5730 5728 5727 5727 5726 5725 5727 5729 5729 5730 5730
5543 5550 5557 5558 5557 5558 5562 5569 5572 5572 5578 5584 5584 5588 5594 5599 5606 5610 5611 5613 5619 5624 5628 5630 5632 5633 5636 5640 5643 5645 5649 5652 5653 5657 5664 5669 5673 5676 5676 5676 5679 5682 5683 5680 5679 5678 5676 5676 5679 5681 5682 5687 5694 5695 5693 5694 5695 5697 5700 5700 5701 5702 5702 5701 5701 5706 5713 5710 5707 5715 5720 5719 5722 5725 5724 5724 5724 5724 5723 5720 5719 5721 5722 5723 5723 5722 5722 5723
5535 5543 5549 5548 5548 5550 5554 5561 5566 5568 5572 5575 5575 5579 5585 5589 5595 5599 5601 5606 5612 5616 5619 5619 5622 5626 5631 5637 5639 5641 5644 5645 5645 5651 5659 5664 5667 5668 5668 5670 5673 5676 5676 5673 5672 5671 5668 5669 5674 5676 5676 5682 5688 5687 5684 5687 5689 5690 5690 5691 5693 5694 5692 5692 5695 5703 5706 5697 5700 5714 5713 5709 5716 5720 5718 5719 5719 5717 5716 5714 5714 5716 5716 5716 5716 5716 5717 5717
5528 5535 5540 5539 5537 5541 5547 5553 5557 5557 5562 5566 5566 5570 5576 5579 5585 5591 5595 5599 5602 5606 5609 5609 5615 5623 5628 5632 5632 5632 5636 5639 5640 5647 5655 5658 5660 5659 5661 5663 5666 5669 5669 5667 5666 5665 5662 5663 5669 5671 5669 5674 5681 5680 5678 5680 5681 5681 5682 5682 5684 5684 5684 5687 5691 5697 5696 5689 5696 5706 5702 5701 5711 5713 5712 5715 5714 5712 5712 5710 5710 5710 5709 5709 5710 5711 5711 5710
5521 5526 5531 5528 5527 5533 5539 5543 5544 5545 5552 5557 5556 5560 5568 5571 5576 5584 5587 5588 5591 5597 5601 5602 5611 5620 5623 5624 5623 5622 5629 5634 5636 5644 5651 5650 5650 5652 5653 5656 5659 5662 5661 5660 5659 5657 5656 5658 5663 5665 5661 5664 5673 5676 5672 5671 5672 5672 5673 5674 5676 5677 5680 5682 5685 5688 5686 5683 5691 5697 5693 5696 5706 5707 5708 5711 5708 5706 5706 5705 5705 5704 5704 5704 5703 5703 5704 5703
5512 5516 5518 5516 5515 5523 5529 5531 5534 5536 5540 5545 5547 5554 5561 5563 5570 5576 5577 5580 5585 5589 5593 5598 5606 5614 5614 5614 5612 5614 5625 5631 5633 5641 5645 5641 5641 5644 5645 5648 5652 5652 5651 5652 5651 5650 5650 5652 5656 5657 5652 5655 5669 5671 5665 5664 5663 5660 5662 5667 5672 5675 5676 5676 5677 5679 5679 5680 5686 5687 5684 5692 5702 5703 5703 5703 5699 5696 5697 5699 5699 5699 5698 5696 5696 5697 5697 5697
5502 5504 5507 5505 5506 5513 5517 5520 5524 5525 5528 5536 5542 5548 5554 5557 5563 5568 5568 5571 5577 5581 5585 5591 5598 5602 5601 5601 5605 5614 5626 5629 5628 5633 5634 5631 5633 5635 5634 5638 5642 5641 5641 5644 5643 5643 5645 5646 5650 5650 5644 5650 5662 5662 5657 5657 5651 5646 5655 5667 5671 5671 5669 5669 5670 5674 5676 5676 5677 5677 5679 5689 5695 5692 5692 5694 5691 5690 5692 5692 5692 5691 5690 5689 5690 5691 5691 5691